Shannon, Ireland

9:42 AM IST on March 27, 2017 (GMT +0100)
Shannon

Weather History for EINN - December, 2012

Change the Weather History Date:

Wednesday, December 5, 2012

  Actual Average Record
Temperature  
Mean Temperature 38 °F -  
Max Temperature 44 °F 48 °F 56 °F (2015)
Min Temperature 32 °F 38 °F 21 °F (2010)
Degree Days  
Heating Degree Days 27    
Moisture  
Dew Point 34 °F    
Average Humidity 88    
Maximum Humidity 100    
Minimum Humidity 66    
Precipitation  
Precipitation 0.00 in 0.13 in - ()
Sea Level Pressure  
Sea Level Pressure 30.00 in    
Wind  
Wind Speed 7 mph ()    
Max Wind Speed 14 mph    
Max Gust Speed -    
Visibility 6.6 miles    
Events      
Averages and records for this station are not official NWS values.
T = Trace of Precipitation, MM = Missing Value Source: Averaged Metar Reports

Daily Weather History Graph

Daily Weather History Graph

Search for Another Location

Airport or City:

Trip Planner

Search our weather history database for the weather conditions in past years. The results will help you decide how hot, cold, wet, or windy it might be!

Date:

Astronomy

Dec. 05, 2012 Rise Set
Actual Time 8:30 AM GMT 4:22 PM GMT
Civil Twilight 7:49 AM GMT 5:03 PM GMT
Nautical Twilight 7:05 AM GMT 5:47 PM GMT
Astronomical Twilight 6:24 AM GMT 6:28 PM GMT
Moon 11:37 PM GMT (12/5) 12:12 PM GMT (12/5)
Length of Visible Light 9h 13m
Length of Day
7h 51m
Waning Gibbous, 62% of the Moon is Illuminated
Dec 5
Waning Gibbous
Dec 6
Last Quarter
Dec 13
New
Dec 20
First Quarter
Dec 28
Full

Hourly Weather History & Observations

Time (GMT) Temp. Windchill Dew Point Humidity Pressure Visibility Wind Dir Wind Speed Gust Speed Precip Events Conditions
12:00 AM 40 °F - 37 °F 86% 29.83 in 12 mi NW 8.9 mph - -   Partly Cloudy
12:00 AM 39.2 °F 33.6 °F 37.4 °F 93% 29.83 in 6.2 mi NW 8.1 mph - N/A   Partly Cloudy
12:30 AM 39.2 °F 33.6 °F 37.4 °F 93% 29.83 in 6.2 mi NW 8.1 mph - N/A   Partly Cloudy
1:00 AM 41.0 °F 34.3 °F 35.6 °F 81% 29.83 in 6.2 mi NW 11.5 mph - N/A   Partly Cloudy
1:30 AM 39.2 °F 32.0 °F 35.6 °F 87% 29.83 in 6.2 mi NW 11.5 mph - N/A   Partly Cloudy
2:00 AM 39.2 °F 31.6 °F 35.6 °F 87% 29.86 in 6.2 mi NW 12.7 mph - N/A   Partly Cloudy
2:30 AM 39.2 °F 31.2 °F 35.6 °F 87% 29.86 in 6.2 mi NW 13.8 mph - N/A   Partly Cloudy
3:00 AM 37.4 °F 29.3 °F 33.8 °F 87% 29.89 in 6.2 mi NNW 12.7 mph - N/A   Partly Cloudy
3:30 AM 37.4 °F 28.9 °F 33.8 °F 87% 29.89 in 6.2 mi NNW 13.8 mph - N/A   Partly Cloudy
4:00 AM 37.4 °F 29.3 °F 33.8 °F 87% 29.89 in 6.2 mi NNW 12.7 mph - N/A   Partly Cloudy
4:30 AM 37.4 °F 30.3 °F 32.0 °F 81% 29.92 in 6.2 mi North 10.4 mph - N/A   Partly Cloudy
5:00 AM 35.6 °F 28.0 °F 32.0 °F 87% 29.95 in 6.2 mi North 10.4 mph - N/A   Partly Cloudy
5:30 AM 35.6 °F 29.2 °F 32.0 °F 87% 29.95 in 6.2 mi NNW 8.1 mph - N/A   Partly Cloudy
6:00 AM 34 °F - 32 °F 89% 29.98 in 12 mi NE 6.7 mph - -   Scattered Clouds
6:00 AM 33.8 °F 28.6 °F 32.0 °F 93% 29.95 in 6.2 mi NE 5.8 mph - N/A   Partly Cloudy
6:30 AM 32.0 °F 26.4 °F 30.2 °F 93% 29.98 in 6.2 mi North 5.8 mph - N/A   Partly Cloudy
7:00 AM 32.0 °F 26.4 °F 30.2 °F 93% 29.98 in 6.2 mi NNW 5.8 mph - N/A   Partly Cloudy
7:30 AM 32.0 °F 26.4 °F 30.2 °F 93% 30.01 in - NW 5.8 mph - N/A   Clear
8:00 AM 32.0 °F 26.4 °F 30.2 °F 93% 30.01 in - NNW 5.8 mph - N/A   Clear
8:30 AM 32.0 °F 26.4 °F 30.2 °F 93% 30.01 in - NW 5.8 mph - N/A   Clear
9:30 AM 32.0 °F 27.5 °F 32.0 °F 100% 30.04 in - WNW 4.6 mph - N/A   Clear
10:00 AM 33.8 °F - 32.0 °F 93% 30.04 in 6.2 mi Variable 1.2 mph - N/A   Partly Cloudy
10:30 AM 35.6 °F 32.8 °F 33.8 °F 93% 30.04 in 6.2 mi West 3.5 mph - N/A   Partly Cloudy
11:00 AM 39.2 °F 35.9 °F 33.8 °F 81% 30.06 in 6.2 mi West 4.6 mph - N/A   Partly Cloudy
11:30 AM 41.0 °F 39.0 °F 35.6 °F 81% 30.06 in 6.2 mi WNW 3.5 mph - N/A   Partly Cloudy
12:00 PM 42 °F - 34 °F 66% 30.07 in 25 mi West 4.5 mph - -   Scattered Clouds
12:00 PM 42.8 °F 41.1 °F 33.8 °F 70% 30.06 in 6.2 mi West 3.5 mph - N/A   Partly Cloudy
12:30 PM 42.8 °F 39.3 °F 35.6 °F 76% 30.06 in 6.2 mi WSW 5.8 mph - N/A   Partly Cloudy
1:00 PM 42.8 °F 39.3 °F 35.6 °F 76% 30.06 in 6.2 mi SW 5.8 mph - N/A   Partly Cloudy
3:00 PM 42.8 °F 39.3 °F 37.4 °F 81% 30.04 in 6.2 mi West 5.8 mph - N/A   Partly Cloudy
3:30 PM 41.0 °F 37.1 °F 37.4 °F 87% 30.04 in 6.2 mi West 5.8 mph - N/A   Scattered Clouds
4:00 PM 41.0 °F 38.0 °F 37.4 °F 87% 30.06 in 6.2 mi West 4.6 mph - N/A   Scattered Clouds
4:30 PM 39.2 °F 35.0 °F 37.4 °F 93% 30.06 in 6.2 mi West 5.8 mph - N/A   Scattered Clouds
5:00 PM 39.2 °F 35.0 °F 35.6 °F 87% 30.06 in 6.2 mi WSW 5.8 mph - N/A   Scattered Clouds
5:30 PM 37.4 °F 33.8 °F 35.6 °F 93% 30.06 in 6.2 mi WSW 4.6 mph - N/A   Scattered Clouds
6:00 PM 38 °F - 36 °F 89% 30.07 in 12 mi SW 4.5 mph - -   Scattered Clouds
6:00 PM 37.4 °F 33.8 °F 35.6 °F 93% 30.06 in 6.2 mi SW 4.6 mph - N/A   Partly Cloudy
6:30 PM 37.4 °F - 35.6 °F 93% 30.06 in 6.2 mi WSW 2.3 mph - N/A   Mostly Cloudy
7:00 PM 37.4 °F - 35.6 °F 93% 30.06 in 6.2 mi South 1.2 mph - N/A   Mostly Cloudy
7:30 PM 35.6 °F - 32.0 °F 87% 30.06 in 6.2 mi SSE 1.2 mph - N/A   Mostly Cloudy
8:00 PM 35.6 °F - 35.6 °F 100% 30.06 in 6.2 mi South 2.3 mph - N/A   Mostly Cloudy
8:30 PM 37.4 °F - 33.8 °F 87% 30.06 in 6.2 mi South 2.3 mph - N/A   Mostly Cloudy
9:00 PM 35.6 °F 31.7 °F 33.8 °F 93% 30.06 in 6.2 mi SE 4.6 mph - N/A   Mostly Cloudy
9:30 PM 35.6 °F 31.7 °F 33.8 °F 93% 30.06 in 6.2 mi SE 4.6 mph - N/A   Mostly Cloudy
10:00 PM 35.6 °F 31.7 °F 32.0 °F 87% 30.06 in 6.2 mi SE 4.6 mph - N/A   Mostly Cloudy
10:30 PM 33.8 °F 29.6 °F 32.0 °F 93% 30.06 in 6.2 mi SSE 4.6 mph - N/A   Mostly Cloudy
11:00 PM 33.8 °F 29.6 °F 32.0 °F 93% 30.04 in 6.2 mi SE 4.6 mph - N/A   Partly Cloudy
11:30 PM 33.8 °F 27.7 °F 32.0 °F 93% 30.04 in 6.2 mi SE 6.9 mph - N/A   Partly Cloudy